Weather History for KLXV - February, 2014

Change the Weather History Date:

Saturday, February 15, 2014

  Actual Average Record
Temperature  
Mean Temperature 33 °F -  
Max Temperature 37 °F 31 °F 47 °F (2011)
Min Temperature 29 °F 5 °F -10 °F (1990)
Degree Days  
Heating Degree Days 32 47  
Month to date heating degree days 730 716  
Since 1 July heating degree days 6969 7113  
Cooling Degree Days 0 0  
Month to date cooling degree days 0 0  
Year to date cooling degree days 0 0  
Moisture  
Dew Point 20 °F    
Average Humidity 58    
Maximum Humidity 72    
Minimum Humidity 44    
Precipitation  
Precipitation T in 0.02 in 0.20 in (2013)
Month to date precipitation 0.86 0.34  
Year to date precipitation 3.82 0.96  
Sea Level Pressure  
Sea Level Pressure 29.94 in    
Wind  
Wind Speed 12 mph (NNW)    
Max Wind Speed 31 mph    
Max Gust Speed 45 mph    
Visibility 9 miles    
Events Rain    
T = Trace of Precipitation, MM = Missing Value Source: NWS Daily Summary

Daily Weather History Graph

Daily Weather History Graph

Search for Another Location

Airport or City:

Trip Planner

Search our weather history database for the weather conditions in past years. The results will help you decide how hot, cold, wet, or windy it might be!

Date:

Astronomy

Feb. 15, 2014 Rise Set
Actual Time 6:56 AM MST 5:42 PM MST
Civil Twilight 6:29 AM MST 6:09 PM MST
Nautical Twilight 5:58 AM MST 6:41 PM MST
Astronomical Twilight 5:27 AM MST 7:12 PM MST
Moon 6:44 PM MST (2/15) 6:57 AM MST (2/15)
Length of Visible Light 11h 40m
Length of Day
10h 45m
Waxing Gibbous, 99% of the Moon is Illuminated
Feb 15
Waxing Gibbous
Feb 22
Last Quarter
Mar 1
New
Mar 8
First Quarter
Mar 16
Full

Hourly Weather History & Observations

Time (MST) Temp. Windchill Dew Point Humidity Pressure Visibility Wind Dir Wind Speed Gust Speed Precip Events Conditions
12:53 AM 33.1 °F 23.0 °F 23.0 °F 66% 29.89 in 9.0 mi NNW 15.0 mph 28.8 mph 0.00 in   Overcast
1:53 AM 33.1 °F 21.9 °F 23.0 °F 66% 29.88 in 7.0 mi WNW 18.4 mph 34.5 mph 0.00 in   Overcast
2:53 AM 34.0 °F 22.1 °F 23.0 °F 64% 29.86 in 6.0 mi WNW 21.9 mph 34.5 mph 0.00 in Rain Light Rain
3:53 AM 33.1 °F 21.5 °F 21.0 °F 61% 29.87 in 8.0 mi West 19.6 mph 31.1 mph 0.00 in   Partly Cloudy
4:53 AM 34.0 °F 26.0 °F 19.9 °F 56% 29.87 in 10.0 mi WNW 10.4 mph - N/A   Mostly Cloudy
5:53 AM 35.1 °F 23.8 °F 16.0 °F 46% 29.87 in 9.0 mi West 20.7 mph 38.0 mph N/A   Mostly Cloudy
6:53 AM 35.1 °F 26.9 °F 15.1 °F 44% 29.88 in 10.0 mi WNW 11.5 mph - N/A   Overcast
7:53 AM 34.0 °F 26.0 °F 16.0 °F 48% 29.89 in 10.0 mi NW 10.4 mph 17.3 mph N/A   Overcast
8:53 AM 36.0 °F 28.5 °F 16.0 °F 44% 29.91 in 10.0 mi NNW 10.4 mph 21.9 mph N/A   Overcast
9:53 AM 35.1 °F 28.6 °F 17.1 °F 48% 29.95 in 10.0 mi NW 8.1 mph - N/A   Overcast
10:53 AM 36.0 °F 27.5 °F 16.0 °F 44% 29.94 in 10.0 mi WNW 12.7 mph 28.8 mph N/A   Overcast
11:53 AM 34.0 °F 24.2 °F 19.9 °F 56% 29.98 in 7.0 mi West 15.0 mph 36.8 mph N/A   Overcast
12:53 PM 33.1 °F 23.9 °F 23.0 °F 66% 29.99 in 10.0 mi SW 12.7 mph - 0.00 in   Overcast
1:53 PM 32.0 °F 27.5 °F 25.0 °F 75% 29.99 in 10.0 mi South 4.6 mph - N/A   Overcast
2:53 PM 34.0 °F 29.8 °F 23.0 °F 64% 29.99 in 10.0 mi Variable 4.6 mph - N/A   Overcast
3:53 PM 32.0 °F 22.5 °F 25.0 °F 75% 30.02 in 9.0 mi North 12.7 mph 16.1 mph N/A   Overcast
4:53 PM 32.0 °F 26.4 °F 25.0 °F 75% 30.01 in 10.0 mi NE 5.8 mph - N/A   Overcast
5:53 PM 30.9 °F 23.5 °F 21.9 °F 69% 30.01 in 10.0 mi NE 8.1 mph - N/A   Overcast
6:53 PM 32.0 °F 24.8 °F 19.9 °F 61% 29.99 in 10.0 mi NE 8.1 mph - N/A   Mostly Cloudy
7:53 PM 30.9 °F 22.8 °F 19.9 °F 64% 30.00 in 10.0 mi NNE 9.2 mph - N/A   Scattered Clouds
8:53 PM 30.9 °F 22.8 °F 19.0 °F 61% 29.98 in 10.0 mi East 9.2 mph - N/A   Scattered Clouds
9:53 PM 32.0 °F 23.6 °F 17.1 °F 54% 29.97 in 10.0 mi NNE 10.4 mph - N/A   Clear
10:53 PM 30.9 °F 22.8 °F 16.0 °F 54% 29.95 in 10.0 mi NE 9.2 mph - N/A   Clear
11:53 PM 32.0 °F 22.5 °F 15.1 °F 50% 29.94 in 10.0 mi NE 12.7 mph - N/A   Clear